Meteo Giornale » Osservazioni meteo Stati Uniti (USA) » Leesburg-Godfrey

ore: 01:35 - Osservazioni Meteo Leesburg-Godfrey
Lat. 39° 5' N Lon. 77° 34' W Alt. 119 metri s.l.m.

nuvoloso

25 °C

Nuvoloso

Temp. 24 Ore

21 °C

29 °C

Sud-Ovest

7.4 Km/h

Dew point 24 °C

Umidità 94 %

Visibilità  10 Km

Il sole sorge alle ore 06:39

Il sole tramonta alle ore 19:41

Data e Ora Cielo e Fenomeni T °C DP °C Um. % Pres. hPa Vis. km Vento km/h
Oggi h: 01:35 nuvoloso Nuvoloso 25 24 94 1018 10 SO 7.4
Oggi h: 01:15 sereno Sereno 25 24 94 1018 10 SO 7.4
Oggi h: 00:55 nuvoloso Nuvoloso 25 24 94 1018 10 SO 9.3
Oggi h: 00:35 molto_nuvoloso Molto Nuvoloso 25 24 94 1019 10 SO 9.3
Oggi h: 00:15 nuvoloso Nuvoloso 24 24 100 1019 10 SO 7.4
Ieri h: 23:55 nuvoloso Nuvoloso 25 24 94 1019 10 SO 7.4
Ieri h: 23:35 molto_nuvoloso Molto Nuvoloso 25 24 94 1019 10 N 5.5
Ieri h: 23:15 molto_nuvoloso Molto Nuvoloso 24 24 100 1019 10 N 5.5
Ieri h: 22:55 nuvoloso Nuvoloso 23 23 100 1019 10 N 0
Ieri h: 22:35 nuvoloso Nuvoloso 24 24 100 1019 10 N 0
Ieri h: 22:15 sereno Sereno 23 23 100 1019 10 N 0
Ieri h: 21:55 sereno Sereno 25 24 94 1019 10 N 0
Ieri h: 21:35 nuvoloso Nuvoloso 25 24 94 1019 10 N 0
Ieri h: 21:15 molto_nuvoloso Molto Nuvoloso 25 24 94 1019 10 N 0
Ieri h: 20:55 nuvoloso Nuvoloso 25 24 94 1019 10 N 5.5
Ieri h: 20:35 nuvoloso Nuvoloso 26 24 88 1019 10 SO 7.4
Ieri h: 20:15 nuvoloso Nuvoloso 26 24 88 1018 10 N 5.5
Ieri h: 19:55 molto_nuvoloso Molto Nuvoloso 26 23 83 1018 10 O/SO 9.3
Ieri h: 19:35 molto_nuvoloso Molto Nuvoloso 27 24 83 1018 10 O/SO 9.3
Ieri h: 19:15 nuvoloso Nuvoloso 27 24 83 1018 10 N 0
Ieri h: 18:55 nuvoloso Nuvoloso 27 25 88 1018 10 N 5.5
Ieri h: 18:35 molto_nuvoloso Molto Nuvoloso 28 24 78 1019 10 N 0
Ieri h: 18:15 coperto Coperto 28 25 83 1019 10 N 5.5
Ieri h: 17:55 molto_nuvoloso Molto Nuvoloso 28 24 78 1019 10 N 0
Ieri h: 17:35 molto_nuvoloso Molto Nuvoloso 28 24 78 1019 10 N 0
Ieri h: 17:15 sereno Sereno 28 25 83 1019 10 N 0
Ieri h: 16:55 sereno Sereno 28 25 83 1019 10 N 5.5
Ieri h: 16:35 coperto_pioggia Pioggia 28 25 83 1019 10 N 5.5
Ieri h: 16:15 molto_nuvoloso Molto Nuvoloso 28 25 83 1019 10 N 0
Ieri h: 15:55 sereno Sereno 28 25 83 1019 10 N 5.5
Ieri h: 15:35 sereno Sereno 28 24 78 1019 10 N 0
Ieri h: 15:15 nuvoloso Nuvoloso 28 24 78 1020 10 N 5.5
Ieri h: 14:55 nuvoloso Nuvoloso 28 24 78 1020 10 N 0
Ieri h: 14:35 sereno Sereno 28 23 74 1020 10 N 0
Ieri h: 14:15 nuvoloso Nuvoloso 29 24 74 1020 10 N 0
Ieri h: 13:55 nuvoloso Nuvoloso 29 24 74 1020 10 N 5.5
Ieri h: 13:35 nuvoloso Nuvoloso 28 23 74 1020 10 N 0
Ieri h: 13:15 sereno Sereno 28 23 74 1020 10 N 5.5
Ieri h: 12:55 nuvoloso Nuvoloso 28 23 74 1020 10 N 0
Ieri h: 12:35 nuvoloso Nuvoloso 28 23 74 1020 10 N 0
Ieri h: 12:15 molto_nuvoloso Molto Nuvoloso 27 23 78 1021 10 NE 7.4
Ieri h: 11:55 coperto Coperto 27 23 78 1021 10 N 0
Ieri h: 11:35 molto_nuvoloso Molto Nuvoloso 27 24 83 1021 10 N 5.5
Ieri h: 11:15 nuvoloso Nuvoloso 26 23 83 1021 10 N 7.4
Ieri h: 10:55 sereno Sereno 26 23 83 1021 10 N 5.5
Ieri h: 10:35 nuvoloso Nuvoloso 26 23 83 1021 10 NE 9.3
Ieri h: 10:15 nuvoloso Nuvoloso 25 23 88 1021 10 N 9.3
Ieri h: 09:55 nuvoloso Nuvoloso 25 22 83 1021 10 N/NE 7.4
Ieri h: 09:35 nuvoloso Nuvoloso 24 22 88 1021 10 N 5.5
Ieri h: 09:15 nuvoloso Nuvoloso 23 22 94 1021 10 N 9.3
Ieri h: 08:55 molto_nuvoloso Molto Nuvoloso 23 22 94 1020 10 N 9.3
Ieri h: 08:35 nuvoloso Nuvoloso 23 22 94 1021 10 N 9.3
Ieri h: 08:15 molto_nuvoloso Molto Nuvoloso 23 22 94 1020 10 N 9.3
Ieri h: 07:55 molto_nuvoloso Molto Nuvoloso 22 22 100 1020 10 N 11.1
Ieri h: 07:35 nuvoloso Nuvoloso 22 22 100 1020 10 N 7.4
Ieri h: 07:15 sereno Sereno 22 22 100 1020 10 N 7.4
Ieri h: 06:55 sereno Sereno 22 22 100 1020 10 N 5.5
Ieri h: 06:35 sereno Sereno 21 21 100 1020 10 N/NO 7.4
Ieri h: 06:15 nuvoloso Nuvoloso 21 21 100 1019 10 N/NO 7.4
Ieri h: 05:55 nuvoloso Nuvoloso 21 21 100 1019 10 N 9.3
Ieri h: 05:35 sereno Sereno 21 21 100 1019 10 N/NO 9.3
Ieri h: 05:15 sereno Sereno 21 21 100 1019 10 N/NO 7.4
Ieri h: 04:55 sereno Sereno 21 21 100 1019 10 N 5.5
Ieri h: 04:35 sereno Sereno 21 21 100 1019 10 N 0
Ieri h: 04:15 sereno Sereno 21 21 100 1019 10 N 5.5
Ieri h: 03:55 sereno Sereno 21 21 100 1019 10 N 0
Ieri h: 03:35 sereno Sereno 21 21 100 1019 10 N 5.5
Ieri h: 03:15 sereno Sereno 21 21 100 1019 10 N 0
Ieri h: 02:55 sereno Sereno 21 21 100 1019 10 N 0
Ieri h: 02:35 sereno Sereno 21 21 100 1019 10 N 5.5
Ieri h: 02:15 sereno Sereno 21 21 100 1019 10 N 0
Ieri h: 01:55 sereno Sereno 21 21 100 1019 10 N 0
Ieri h: 01:35 sereno Sereno 21 21 100 1019 10 N 0